Orbital Elements at Epoch 2459200.5 (2020-Dec-17.0) TDB
Reference: JPL 26 (heliocentric ecliptic J2000)
Element | Value | Uncertainty (1-sigma) | Units |
e | .04846090958995837 | 5.2564e-08 | |
a | 3.067687555772831 | 2.104e-08 | au |
q | 2.919024626482284 | 1.6685e-07 | au |
i | 8.411926865566672 | 4.7494e-06 | deg |
node | 296.6337957585151 | 3.3807e-05 | deg |
peri | 267.8072023075307 | 6.1274e-05 | deg |
M | 287.1508533210659 | 5.3567e-05 | deg |
tp | 2459597.634010904267 (2022-Jan-18.13401090) | 0.0002933 | TDB |
period | 1962.524620303871 5.37 | 2.019e-05 5.528e-08 | d yr |
n | .183437189157025 | 1.8872e-09 | deg/d |
Q | 3.216350485063379 | 2.206e-08 | au |
|
| | Orbit Determination Parameters
Additional Information
|